CAPE
1909 1803 1742 1479 1271 1261 1291 1388 1523 1485 1386 1185 1060 926 784 724 632 694 622 610 740 783 358 85 611 718 1075 922 958 850 702 638 487 686 496 180 243 314 561 565 569 724 675
1660 1446 1228 1181 1225 1363 1292 1273 1271 1123 836 684 547 472 460 384 704 834 752 482 640 693 69 48 193 547 556 853 435 262 984 1063 529 387 46 74 3 336 607 311 590 671 570
1038 1068 1146 1167 1176 1199 1109 965 682 520 404 340 348 392 416 519 656 748 628 542 557 430 48 32 54 139 586 630 127 1070 1024 1171 599 72 1 10 57 289 384 354 402 459 401
919 971 1014 962 837 755 745 571 470 418 371 427 470 477 574 583 526 505 455 459 212 68 26 10 18 53 471 357 942 726 1055 992 469 69 4 59 28 149 113 279 124 252 202
647 550 439 475 596 722 608 558 557 359 377 453 578 574 612 531 238 443 402 538 417 7 39 32 54 81 121 167 444 966 1037 578 164 25 9 29 53 1 64 115 33 50 55
127 104 370 523 624 759 712 644 446 438 560 552 567 580 605 3 0 0 5 613 233 23 40 83 88 42 87 58 138 424 518 384 173 11 34 5 21 137 22 0 5 21 1
32 252 470 560 623 667 585 464 391 600 718 642 595 556 365 269 0 0 10 525 411 39 22 50 2 46 69 259 95 266 121 50 89 211 53 57 63 1 21 17 0 0 0
96 312 417 467 450 479 497 500 541 651 606 684 659 462 390 0 0 0 23 325 294 166 28 40 20 10 32 160 319 342 247 241 235 188 24 31 50 0 28 18 14 10 3
221 339 348 334 455 340 416 503 622 596 738 788 567 408 438 7 9 0 98 273 251 167 34 16 12 5 29 18 188 192 190 53 19 38 21 0 1 17 16 0 11 0 1
225 304 326 271 451 337 493 583 603 689 752 558 424 338 4 2 0 0 16 93 195 68 9 6 15 27 8 19 145 80 19 0 2 2 2 3 0 0 3 15 10 5 0
300 343 380 360 572 627 674 622 652 436 592 554 411 78 13 74 3 3 1 121 91 9 8 6 14 9 6 24 29 68 13 1 1 2 0 3 0 0 0 0 1 3 8
391 396 485 783 601 683 776 652 615 712 761 577 352 20 43 2 2 5 2 4 1 12 2 12 17 3 8 4 11 18 14 7 2 0 0 2 8 3 0 1 2 4 56
465 475 682 756 705 735 729 705 721 622 661 590 192 123 9 51 1 3 4 0 0 9 17 13 15 6 0 4 4 0 15 10 0 0 0 0 3 0 2 1 0 42 2
620 693 795 813 771 780 638 663 593 748 642 237 127 84 43 4 15 17 5 0 2 5 7 5 1 10 11 2 4 5 0 3 1 1 0 0 2 0 0 0 0 49 25
752 812 765 860 895 826 645 364 471 709 446 326 305 110 88 31 14 17 22 5 1 13 5 0 0 4 16 0 2 10 4 9 15 9 0 0 0 0 0 16 51 7 0
846 849 773 754 844 744 613 345 54 49 13 1 19 64 17 4 0 0 0 0 0 13 5 0 0 0 14 5 6 12 16 13 14 1 2 0 0 20 22 9 13 4 0
656 680 542 378 451 576 548 603 349 0 0 0 0 0 0 0 0 0 0 0 4 0 4 0 0 3 2 10 17 12 5 5 5 49 27 31 28 16 8 17 17 10 2
630 462 574 438 358 340 556 743 794 521 338 54 0 0 0 0 1 0 0 8 11 5 9 10 34 25 0 0 3 27 47 51 80 72 65 69 42 20 24 30 5 0 0
639 579 413 489 497 174 231 410 427 721 692 380 0 0 0 0 1 0 0 17 4 8 5 2 45 30 23 23 32 56 68 48 44 44 55 64 48 58 54 17 4 0 0
356 175 338 510 786 581 169 237 365 693 722 604 160 10 0 3 0 0 1 24 16 10 3 10 14 53 45 49 49 18 36 28 44 55 57 54 47 43 37 12 11 9 0
203 479 384 489 597 538 350 75 245 338 510 412 537 28 0 48 10 8 18 17 18 24 4 6 19 31 39 12 14 11 10 10 53 33 74 86 102 53 20 10 9 6 5
132 303 315 350 426 442 461 349 168 97 183 243 571 0 0 21 160 61 42 88 114 101 85 96 88 47 39 28 24 18 15 56 83 30 103 112 70 40 17 8 23 75 103
158 233 200 209 312 238 598 577 404 202 108 110 299 51 0 171 187 190 201 239 275 366 273 153 110 67 53 53 99 133 101 82 89 98 94 167 199 194 158 140 148 172 195
380 283 274 368 387 529 645 723 692 298 169 190 236 217 268 343 399 397 470 477 392 345 337 374 367 294 182 127 146 97 67 107 162 189 203 249 334 300 284 321 320 289 270
640 657 540 576 571 626 709 803 778 791 570 340 393 446 477 502 576 610 705 713 696 627 573 528 525 406 302 279 249 186 60 0 14 1 108 190 191 202 223 231 187 148 114
54 14 46 81 245 375 459 498 456 533 606 596 517 467 380 346 254 258 221 238 338 455 444 451 426 330 309 325 277 141 118 62 22 6 9 57 94 130 123 118 73 50 26
CIN
-81 -84 -87 -102 -95 -70 -34 -5 0 0 0 0 0 0 0 0 0 0 0 0 0 0 0 -27 0 0 0 0 0 0 0 0 -7 0 0 -2 -1 0 -1 -4 -2 0 0
-74 -95 -117 -98 -61 -23 -8 0 0 0 0 0 0 0 0 0 0 0 0 0 0 0 -17 -23 -16 0 0 0 -2 -32 0 0 0 0 -4 -11 -1 0 0 -6 0 0 0
-134 -117 -90 -63 -37 -15 -1 0 -2 -6 -8 -2 0 0 0 0 0 0 0 0 0 0 -22 -25 -6 -1 0 0 -38 0 0 0 0 -16 -8 -11 -6 0 0 0 0 0 0
-108 -92 -80 -59 -45 -29 -14 -12 -8 -12 -1 0 0 0 0 0 0 0 0 0 -16 -14 -41 -6 -18 -16 0 -3 0 0 0 0 0 -24 -4 -11 -8 0 0 0 0 0 0
-106 -120 -130 -98 -49 -13 -4 -1 0 -6 -1 0 0 0 0 0 -2 0 0 0 0 -8 -3 -2 -2 -5 -3 -24 -8 0 0 0 -13 -26 -33 -15 -3 -1 0 -3 -3 0 0
-173 -157 -87 -48 -14 0 0 0 0 0 0 0 0 0 0 0 0 0 -9 0 0 -17 0 0 0 -15 -13 -32 -16 -2 -4 -22 -29 -48 -15 -30 -14 0 -5 0 -6 0 0
-188 -98 -40 -12 0 0 0 0 0 0 0 0 0 0 0 0 0 0 -24 0 0 -16 -2 0 -1 -7 -21 -4 -36 -5 -19 -40 -33 -26 -38 -17 -10 -1 -7 -5 0 0 -8
-124 -53 -20 -4 0 0 0 0 0 0 0 0 0 0 0 0 0 0 -16 -1 -3 0 -6 -1 -1 -9 -33 -9 0 0 -1 0 -3 -3 -29 -39 -4 -1 0 -19 0 -1 -1
-60 -24 -11 -5 0 0 0 0 0 0 0 0 0 0 0 -1 -2 0 -1 0 0 0 0 -2 -2 -2 -23 -13 0 0 0 -6 -2 -12 -9 0 0 0 -2 0 -1 -2 -1
-38 -19 -9 -1 0 -2 0 0 0 0 0 0 0 0 -2 0 0 0 -6 -1 0 -5 -1 -1 -2 -12 -24 -21 0 -8 0 0 0 0 -1 0 -1 0 0 0 0 0 0
-17 -14 0 0 0 0 0 0 0 0 0 0 0 -4 -4 -3 -2 -4 -8 -1 -1 -7 -9 -3 0 -3 -9 -9 -11 -9 -1 0 0 0 -1 -1 0 0 0 0 0 0 0
-5 -2 0 0 0 0 0 0 0 0 0 0 0 -2 -6 0 -1 -4 0 -1 0 -13 -7 -1 0 -2 0 -1 -6 -10 -5 -12 -50 -3 0 -1 -2 0 0 0 0 0 -4
-1 0 0 0 0 0 0 0 0 0 0 0 -7 -8 0 0 0 0 -6 0 0 -5 -1 -2 0 -2 0 -2 -5 -1 0 -5 0 0 0 0 0 0 0 0 0 0 -9
0 0 0 0 0 0 0 0 0 0 0 -3 -18 0 0 0 0 -1 -4 0 -8 -16 -3 0 0 0 0 -4 0 -1 -2 -6 -2 -1 0 0 0 0 0 0 0 0 0
0 0 0 0 0 0 0 0 0 0 -4 0 0 -1 0 -1 0 -1 0 0 -7 -2 -1 0 0 0 0 0 -4 0 0 -2 -1 -1 0 0 0 0 0 0 -1 0 0
0 0 0 0 0 0 0 -16 -53 -10 -12 -19 -1 -1 -6 -7 0 0 0 0 0 -3 -3 0 0 0 0 0 0 0 0 0 0 -1 0 0 0 0 0 0 0 0 0
0 0 0 -1 0 0 0 0 0 0 0 0 0 0 -1 0 0 0 0 -2 -8 0 0 0 0 0 -4 0 0 0 0 0 -1 0 -1 -1 -2 0 -1 0 0 0 0
0 -2 0 0 -4 -3 0 0 0 0 0 0 0 0 0 0 0 0 0 -15 -8 0 0 -2 -5 -1 0 0 0 -3 0 0 0 0 0 0 0 0 -3 0 0 0 0
0 0 0 0 -1 -36 -15 0 0 0 0 0 0 0 0 0 0 0 0 -6 -13 -1 0 -1 0 -1 -8 -9 -1 0 0 0 0 0 0 0 0 0 0 0 0 0 0
-6 -19 -1 0 0 0 -43 -11 0 0 0 0 -30 -46 0 0 0 0 0 0 0 0 0 0 -2 0 0 0 0 0 0 -3 0 0 0 0 -3 0 0 0 0 0 0
-21 -1 -4 0 0 0 -8 -73 -10 0 0 0 0 -34 0 -89 -3 0 -3 -2 -3 -2 -1 -1 0 -1 0 0 0 0 0 0 -16 -1 -22 -9 -2 -19 0 0 0 0 0
-36 -8 -2 -1 0 0 -1 -6 -49 -64 -24 -12 0 0 0 -119 -11 -58 -69 -20 -11 -19 -21 -11 -14 -9 -9 -8 -14 -16 -2 -20 -15 -46 -12 -11 -19 -31 -57 -21 -40 -23 -16
-25 -21 -26 -19 -6 -36 -1 0 -2 -43 -73 -58 -8 -100 0 -32 -17 -7 -3 -2 0 0 -2 -11 -18 -27 -32 -33 -13 -6 -13 -22 -25 -27 -32 -4 -1 -3 -7 -14 -12 -11 -8
0 -2 -7 -3 -2 0 0 0 0 -17 -49 -54 -44 -47 -50 -27 -22 -21 -11 -11 -16 -15 -10 -2 0 -4 -18 -25 -16 -33 -48 -29 -10 -6 -11 -4 0 -8 -1 0 -2 -7 -4
-6 -3 0 0 -1 -1 0 0 0 0 0 -21 -21 -14 -10 -11 -8 -5 -1 0 0 0 0 0 0 -8 -24 -32 -41 -59 -133 0 -100 -31 -105 -60 -65 -70 -73 -65 -60 -58 -63
-21 -76 -131 -127 -58 -24 -10 -13 -10 -3 -1 0 -1 -8 -21 -34 -56 -53 -58 -52 -22 -6 -3 -1 -5 -30 -47 -72 -84 -112 -117 -160 -225 -279 -151 -169 -148 -125 -117 -116 -134 -147 -163
Wind_Speed
32 31 29 28 29 29 30 31 30 32 31 28 26 23 22 21 17 17 15 18 18 20 21 nan 6 6 6 9 7 4 10 12 16 19 23 25 25 26 28 27 25 26 25
26 27 28 27 28 29 30 29 30 28 24 26 24 21 20 15 15 15 13 15 18 22 nan nan 9 7 4 8 12 9 9 13 15 19 nan nan nan 28 28 28 29 27 25
26 27 26 26 27 28 27 28 24 23 24 24 21 16 13 12 12 11 9 15 18 19 nan nan nan 7 6 11 10 6 7 16 19 nan nan nan nan 25 29 29 29 29 25
25 24 24 25 26 25 26 24 23 22 22 21 17 14 11 10 11 8 12 17 17 nan nan nan nan nan 9 10 11 7 9 18 18 nan nan nan nan 24 23 25 28 27 26
22 22 23 25 24 26 26 24 24 22 21 22 17 15 13 9 8 6 11 17 19 nan nan nan nan nan 12 5 12 13 11 15 18 nan nan nan nan nan nan 22 nan nan nan
20 20 22 22 23 24 25 24 23 21 19 20 18 15 13 nan nan nan nan 12 18 nan nan nan nan nan nan nan 12 10 7 11 15 nan nan nan nan 21 nan nan nan nan nan
nan 20 21 20 20 21 21 21 19 17 17 20 16 13 13 16 nan nan nan 7 14 nan nan nan nan nan nan 7 nan 22 20 nan nan 12 nan nan nan nan nan nan nan nan nan
nan 20 18 17 18 18 18 17 16 15 16 15 14 12 11 nan nan nan nan 10 11 13 nan nan nan nan nan 4 8 12 10 12 15 13 nan nan nan nan nan nan nan nan nan
17 19 16 17 17 16 15 14 14 13 12 15 13 12 13 nan nan nan nan 7 11 10 nan nan nan nan nan nan 7 13 10 nan nan nan nan nan nan nan nan nan nan nan nan
17 16 16 15 15 14 13 13 12 12 12 14 13 15 nan nan nan nan nan nan 9 nan nan nan nan nan nan nan 8 nan nan nan nan nan nan nan nan nan nan nan nan nan nan
17 18 16 13 12 13 12 12 13 13 14 14 15 nan nan nan nan nan nan 3 nan nan nan nan nan nan nan nan nan nan nan nan nan nan nan nan nan nan nan nan nan nan nan
17 17 15 13 13 12 15 15 14 14 12 12 14 nan nan nan nan nan nan nan nan nan nan nan nan nan nan nan nan nan nan nan nan nan nan nan nan nan nan nan nan nan nan
16 15 15 14 15 13 14 15 13 10 7 7 7 11 nan nan nan nan nan nan nan nan nan nan nan nan nan nan nan nan nan nan nan nan nan nan nan nan nan nan nan nan nan
15 14 14 15 14 11 10 9 7 6 5 4 7 nan nan nan nan nan nan nan nan nan nan nan nan nan nan nan nan nan nan nan nan nan nan nan nan nan nan nan nan nan nan
14 12 14 13 8 9 7 5 2 6 6 8 10 11 nan nan nan nan nan nan nan nan nan nan nan nan nan nan nan nan nan nan nan nan nan nan nan nan nan nan nan nan nan
11 10 9 8 5 5 5 7 nan nan nan nan nan nan nan nan nan nan nan nan nan nan nan nan nan nan nan nan nan nan nan nan nan nan nan nan nan nan nan nan nan nan nan
7 10 9 4 2 1 5 6 8 nan nan nan nan nan nan nan nan nan nan nan nan nan nan nan nan nan nan nan nan nan nan nan nan nan nan nan nan nan nan nan nan nan nan
7 9 4 6 3 3 8 10 4 8 7 nan nan nan nan nan nan nan nan nan nan nan nan nan nan nan nan nan nan nan nan nan nan nan nan nan nan nan nan nan nan nan nan
7 5 6 8 4 2 5 10 10 11 9 8 nan nan nan nan nan nan nan nan nan nan nan nan nan nan nan nan nan nan nan nan nan nan nan nan nan nan nan nan nan nan nan
9 9 14 12 8 1 1 7 9 7 10 8 8 nan nan nan nan nan nan nan nan nan nan nan nan nan nan nan nan nan nan nan nan nan nan nan nan nan nan nan nan nan nan
12 14 19 13 9 6 3 nan 9 11 11 8 8 nan nan nan nan nan nan nan nan nan nan nan nan nan nan nan nan nan nan nan nan nan nan nan 2 nan nan nan nan nan nan
14 16 15 15 13 9 7 6 6 nan 8 7 8 nan nan nan 7 nan nan nan 12 10 nan nan nan nan nan nan nan nan nan nan nan nan 6 3 nan nan nan nan nan nan 4
20 19 16 18 17 18 12 9 8 6 5 4 5 nan nan 11 4 4 5 5 7 7 6 6 8 nan nan nan nan 8 5 nan nan nan nan 2 2 3 4 3 4 6 7
26 23 23 22 22 18 16 13 11 14 9 6 6 6 2 1 4 4 3 3 2 2 2 2 3 4 4 6 7 nan nan 7 7 7 5 7 7 8 6 6 9 10 10
36 34 32 31 29 26 25 21 18 17 14 16 16 13 13 11 10 11 10 8 7 6 5 5 5 6 5 6 8 8 nan nan nan nan 12 11 8 7 11 14 14 12 13
nan nan nan nan 42 38 36 36 35 32 27 25 24 24 24 24 25 25 23 22 18 17 18 17 18 23 25 31 30 30 30 nan nan nan nan nan nan 13 16 14 nan nan nan
Wind_Direction
277 275 273 271 275 278 280 279 285 293 297 303 305 304 303 305 302 305 300 310 317 314 300 nan 289 318 253 225 235 258 235 217 223 211 209 207 201 203 204 209 213 211 225
270 272 269 272 274 279 279 283 291 293 300 304 305 304 304 302 306 310 317 319 323 313 nan nan 250 255 225 231 229 219 242 218 211 218 nan nan nan 201 203 207 207 210 220
271 267 269 271 275 279 282 289 289 295 300 303 305 304 301 310 312 321 317 323 320 311 nan nan nan 204 219 215 209 226 211 210 222 nan nan nan nan 201 210 208 211 215 211
267 266 267 270 275 282 289 289 293 294 297 306 308 298 301 309 311 312 306 315 301 nan nan nan nan nan 157 218 216 197 228 213 215 nan nan nan nan 204 210 217 213 209 214
259 263 265 275 283 290 293 292 289 288 296 299 306 297 282 287 279 276 308 314 313 nan nan nan nan nan 146 230 205 216 229 209 212 nan nan nan nan nan nan 212 nan nan nan
260 261 271 279 288 294 295 294 291 283 285 292 300 291 273 nan nan nan nan 307 316 nan nan nan nan nan nan nan 148 183 185 187 190 nan nan nan nan 211 nan nan nan nan nan
nan 268 274 281 293 298 303 304 300 285 275 281 294 287 271 256 nan nan nan 328 319 nan nan nan nan nan nan 151 nan 194 206 nan nan 208 nan nan nan nan nan nan nan nan nan
nan 273 276 290 296 299 309 305 295 278 271 279 292 291 261 nan nan nan nan 321 346 324 nan nan nan nan nan 125 177 191 201 191 211 194 nan nan nan nan nan nan nan nan nan
270 272 276 288 300 306 314 308 288 277 267 277 294 288 247 nan nan nan nan 322 323 308 nan nan nan nan nan nan 171 205 195 nan nan nan nan nan nan nan nan nan nan nan nan
275 270 273 289 305 313 307 312 297 275 269 277 286 261 nan nan nan nan nan nan 309 nan nan nan nan nan nan nan 173 nan nan nan nan nan nan nan nan nan nan nan nan nan nan
276 268 273 291 300 298 310 307 313 306 273 273 274 nan nan nan nan nan nan 338 nan nan nan nan nan nan nan nan nan nan nan nan nan nan nan nan nan nan nan nan nan nan nan
272 272 282 291 288 294 306 305 315 310 288 275 273 nan nan nan nan nan nan nan nan nan nan nan nan nan nan nan nan nan nan nan nan nan nan nan nan nan nan nan nan nan nan
270 276 285 296 290 297 305 305 303 310 282 272 260 250 nan nan nan nan nan nan nan nan nan nan nan nan nan nan nan nan nan nan nan nan nan nan nan nan nan nan nan nan nan
275 285 290 295 296 309 309 317 334 302 254 218 204 nan nan nan nan nan nan nan nan nan nan nan nan nan nan nan nan nan nan nan nan nan nan nan nan nan nan nan nan nan nan
275 286 293 289 302 307 285 258 306 284 195 183 189 186 nan nan nan nan nan nan nan nan nan nan nan nan nan nan nan nan nan nan nan nan nan nan nan nan nan nan nan nan nan
276 283 285 288 308 301 316 315 nan nan nan nan nan nan nan nan nan nan nan nan nan nan nan nan nan nan nan nan nan nan nan nan nan nan nan nan nan nan nan nan nan nan nan
277 272 259 247 230 302 336 324 314 nan nan nan nan nan nan nan nan nan nan nan nan nan nan nan nan nan nan nan nan nan nan nan nan nan nan nan nan nan nan nan nan nan nan
262 244 246 217 208 348 346 330 305 173 160 nan nan nan nan nan nan nan nan nan nan nan nan nan nan nan nan nan nan nan nan nan nan nan nan nan nan nan nan nan nan nan nan
237 217 179 187 174 247 13 47 100 144 152 178 nan nan nan nan nan nan nan nan nan nan nan nan nan nan nan nan nan nan nan nan nan nan nan nan nan nan nan nan nan nan nan
216 213 179 183 198 148 56 96 107 111 120 153 137 nan nan nan nan nan nan nan nan nan nan nan nan nan nan nan nan nan nan nan nan nan nan nan nan nan nan nan nan nan nan
207 214 182 189 186 160 171 nan 120 123 129 134 134 nan nan nan nan nan nan nan nan nan nan nan nan nan nan nan nan nan nan nan nan nan nan nan 149 nan nan nan nan nan nan
210 219 200 197 204 187 171 156 133 nan 141 160 215 nan nan nan 115 nan nan nan 109 128 nan nan nan nan nan nan nan nan nan nan nan nan 147 178 nan nan nan nan nan nan 292
208 217 214 213 213 216 199 176 170 159 157 162 234 nan nan 124 175 146 119 103 105 110 117 134 145 nan nan nan nan 152 157 nan nan nan nan 192 237 262 262 280 307 315 315
211 213 218 217 218 222 219 210 204 199 205 225 246 272 330 119 165 237 252 281 262 164 162 161 146 138 216 201 205 nan nan 207 223 245 258 235 239 265 276 296 313 325 314
212 213 217 218 221 216 223 222 221 238 232 237 246 246 256 252 247 239 239 236 245 251 259 244 244 256 245 219 225 249 nan nan nan nan 262 301 303 309 310 314 320 314 319
nan nan nan nan 212 215 218 220 216 217 231 234 233 234 237 240 237 235 235 234 236 243 240 244 241 230 228 236 229 229 235 nan nan nan nan nan nan 299 304 309 nan nan nan